OV1-5 DEB, 5599

Orbit data source: Space-Track

OV1-5 DEB, 5599 is space debris in LEO originally from a launch on Wed, 30 Mar 1966 UTC launched from the Air Force Western Test Range (AFWTR). Debris objects in space refer to the collection of defunct objects orbiting the Earth. Examples of debris include non-operational satellites, rocket bodies, and fragments generated from explosions, collisions, or faulty payload assembly.

Loading next visibility...
Identifier
5599, 1966-025G
Orbit
LEO
Last TLE update
11 hours ago
Origin
Flag of USAir Force Systems Command (OAR legacy assets) (US)
Manufacturer
Unknown
Mission
Spacecraft
Bus & Motor
Unknown
Mass
Unknown
Launch date (UTC)
1966-03-30 (59 years ago)
Launch vehicle
Unknown
Launch site
Air Force Western Test Range (AFWTR)
Object type
Payload
Rocket body
Debris
Shape & HBR
Unknown
Radar Cross Section
Small (<0.1 m²)

Expand to show TLE details & history

TLE from 11 hours ago
0 OV1-5 DEB
1  5599U 66025G   25182.09002257  .00015708  00000-0  22405-2 0  9996
2  5599 144.6180 266.6622 0026891 192.3130 167.6916 14.74404359 53295
Epoch: 2025-07-01T02:09Z
TLE epoch observation values (Epoch: 2025-07-01T02:09:37.95Z)
Latitude
-0.00002°
Longitude
-45.13637°
Altitude
664.468 km
Speed
7.517 km/s
True Right ascension
17h 46m 38s
True Declination
0° 00' 00"
Sunlit
Object was in full shadow at epoch
Visualization orbit readout
Latitude
-35.45712°
Longitude
51.68085°
Altitude
650.056 km
Speed
7.537 km/s
Apparent Right ascension
21h 43m 21s
Apparent Declination
-82° 13' 17"
Sunlit
Object is in daylight
Visualization observer readout
Local Sidereal Time
00:45:44
Azimuth
186.72° SSW
Elevation
-34.272°
Doppler factor
1
Orbital elements
Apogee altitude
669.064 km
Perigee altitude
631.265 km
Semi-major axis
7,028.301 km
Eccentricity
0.00269
Inclination
144.618°
RAAN
266.6622°
Arg. of periapsis
192.313°
True anomaly
Unknown
Mean anomaly
167.6916°
Eccentric anomaly
Unknown
Mean motion
3.68356 °/min
Orbital period
97.73 mins
BSTAR
0.0022405
Loading maneuver chart data...
Loading SW <> Apogee altitude chart data...
Loading historical data...
Loading historical data...
Loading historical data...
Loading historical data...
Loading historical data...
Loading historical data...
Loading historical data...

OV1-5 DEB Visibility forecast

Observer location: undefined°, undefined°

Span
Click to sort rows by Start time (UTC) header in descending order
Start Az.
Max El. time (UTC)
Max El. Az.
Max El.
End time (UTC)
End Az.
5 mins2025-07-01 22:08:51.071Z115.327° SE2025-07-01 22:10:51.071Z153.392° SSE24.684°2025-07-01 22:13:51.071Z212.485° SW
6 mins2025-07-01 23:41:51.071Z113.999° SE2025-07-01 23:43:51.071Z167.013° S35.612°2025-07-01 23:47:51.071Z246.832° WSW
6 mins2025-07-02 01:13:51.071Z120.227° SE2025-07-02 01:16:51.071Z191.632° SSW35.402°2025-07-02 01:19:51.071Z254.787° W
5 mins2025-07-02 02:47:51.071Z162.486° S2025-07-02 02:49:51.071Z205.993° SW24.269°2025-07-02 02:52:51.071Z254.135° W
|